Flag for Greenland Weather past 2 weeks in Qaanaaq, Greenland

Now
43 °F

Sunny.


Feels Like: 40 °F
Forecast: N/A
Wind: 5 mph from West

Location: Thule A. B.

Current Time: Jul 5, 2015 at 8:11:38 PM

Latest Report: Jul 5, 2015 at 6:58 PM


Visibility: N/A

Pressure: 30.18 "Hg

Humidity: 76%

Dew point: 36 °F

Location of QaanaaqLocation

Historic Weather in Qaanaaq — Graph

°F

Qaanaaq temperature yesterday

Maximum temperature yesterday: 54 °F (at 5:58 PM)
Minimum temperature yesterday: 41 °F (at 6:58 AM)
Average temperature yesterday: 49 °F

Past Weeks' High & Low Weather Summary

 TemperatureHumidityPressure
High54 °F (Jun 22, 2:58 PM)93% (Jul 2, 8:01 AM)30.18 "Hg (Jul 2, 8:01 AM)
Low37 °F (Jun 20, 10:58 PM)35% (Jun 22, 1:58 PM)29.69 "Hg (Jun 24, 7:58 AM)
Average46 °F65%29.96 "Hg
* Reported Jun 20 7:58 PM — Jul 5 6:58 PM, Qaanaaq, Weather by CustomWeather, © 2015

Note: Actual official high and low records may vary slightly from our data, if they occured in-between our weather recording intervals... More about our weather records

Advertising

Qaanaaq weather history for previous 24 hours

 ConditionsComfort  
Time TempWeatherWind HumidityBarometerVisibility
6:58 PM
Sun, Jul 5
44 °FSunny.5 mph75%30.18 "HgN/A
5:58 PM43 °FSunny.8 mph76%30.17 "HgN/A
4:58 PM46 °FSunny.7 mph71%30.15 "HgN/A
3:58 PM41 °FSunny.2 mph81%30.14 "HgN/A
2:58 PM39 °FSunny.6 mph87%30.14 "HgN/A
1:58 PM41 °FSunny.7 mph81%30.14 "HgN/A
12:58 PM41 °FSunny.6 mph81%30.13 "HgN/A
11:58 AM39 °FPassing clouds.9 mph81%30.12 "HgN/A
10:59 AM39 °FPassing clouds.10 mph87%30.15 "HgN/A
10:58 AM39 °FSunny.10 mph87%30.10 "HgN/A
9:58 AM41 °FPartly sunny.5 mph81%30.09 "HgN/A
9:01 AM37 °FMostly cloudy.8 mph93%30.14 "HgN/A
8:58 AM37 °FMostly cloudy.8 mph93%30.10 "HgN/A
7:58 AM37 °FLow clouds.5 mph93%30.08 "HgN/A
6:58 AM39 °FOvercast.10 mph81%30.08 "HgN/A
5:58 AM50 °FOvercast.9 mph58%30.07 "HgN/A
4:58 AM50 °FOvercast.10 mph58%30.06 "HgN/A
3:58 AM50 °FOvercast.5 mph62%30.06 "HgN/A
2:58 AM50 °FOvercast.5 mph62%30.06 "HgN/A
1:58 AM50 °FMostly cloudy.6 mph58%30.07 "HgN/A
12:58 AM50 °FOvercast.10 mph58%30.07 "HgN/A
11:58 PM
Sat, Jul 4
48 °FOvercast.16 mph66%30.06 "HgN/A
10:58 PM52 °FPartly sunny.18 mph58%30.06 "HgN/A
9:58 PM52 °FSunny.20 mph58%30.04 "HgN/A
8:58 PM52 °FSunny.22 mph62%30.04 "HgN/A
Weather by CustomWeather, © 2015

See weather overviewHow to use our weather pages